This is the latest recevied weather packets stored in our database for station/object WB5HZM-3. If no packets are shown the sender has not sent any weather packets the latest 10 day(s).
| Time | Temp. | Humidity | Pressure | Rain* | Wind** | Luminosity | Snow |
|---|---|---|---|---|---|---|---|
| 1777833803 | 23.33° C | 51% | 1022.2 hPa | 0 mm | - | - | - |
| 1777833199 | 23.33° C | 50% | 1022.4 hPa | 0 mm | - | - | - |
| 1777832599 | 23.33° C | 51% | 1022.6 hPa | 0 mm | - | - | - |
| 1777832015 | 22.78° C | 52% | 1022.8 hPa | 0 mm | - | - | - |
| 1777831411 | 22.78° C | 54% | 1023 hPa | 0 mm | - | - | - |
| 1777830806 | 22.78° C | 54% | 1023.1 hPa | 0 mm | - | - | - |
| 1777830204 | 22.78° C | 56% | 1023.3 hPa | 0 mm | - | - | - |
| 1777829600 | 22.78° C | 55% | 1023.5 hPa | 0 mm | - | - | - |
| 1777829015 | 23.33° C | 56% | 1023.7 hPa | 0 mm | - | - | - |
| 1777828414 | 23.33° C | 51% | 1023.7 hPa | 0 mm | - | - | - |
| 1777827809 | 23.33° C | 52% | 1023.8 hPa | 0 mm | - | - | - |
| 1777827204 | 23.33° C | 49% | 1023.9 hPa | 0 mm | - | - | - |
| 1777826599 | 23.89° C | 46% | 1024 hPa | 0 mm | - | - | - |
| 1777825999 | 23.89° C | 48% | 1024 hPa | 0 mm | - | - | - |
| 1777825415 | 23.89° C | 47% | 1024.1 hPa | 0 mm | - | - | - |
| 1777824809 | 23.89° C | 48% | 1024.1 hPa | 0 mm | - | - | - |
| 1777824209 | 23.89° C | 49% | 1024.2 hPa | 0 mm | - | - | - |
| 1777823604 | 23.33° C | 50% | 1024.2 hPa | 0 mm | - | - | - |
| 1777822999 | 23.33° C | 50% | 1024.2 hPa | 0 mm | - | - | - |
| 1777822398 | 23.33° C | 51% | 1024.1 hPa | 0 mm | - | - | - |
| 1777821814 | 22.78° C | 53% | 1024 hPa | 0 mm | - | - | - |
| 1777821208 | 22.78° C | 52% | 1023.9 hPa | 0 mm | - | - | - |
| 1777820604 | 22.22° C | 53% | 1023.9 hPa | 0 mm | - | - | - |
| 1777820004 | 22.22° C | 54% | 1024 hPa | 0 mm | - | - | - |
| 1777819400 | 21.67° C | 56% | 1023.8 hPa | 0 mm | - | - | - |
* Rain latest hour (hover to see other rain measurements)
** Current wind speed in m/s (hover to see current wind gust speed)